Location: ?ern� Novina
(50.6762°N, 14.8696°E)
Time: 10:22:47
(UTC+00:00)

Cosmos 1980 Rocket - Pass Details

Date: 03 March 2021
Orbit: 828 x 851 km, 71.0° (Epoch: 17 April)

Event Time Altitude Azimuth Distance (km) Brightness Sun altitude
Rises 17:10:17 0° 219° (SW) 3,388 6.1 -4.7°
Reaches altitude 10° 17:12:45 10° 223° (SW) 2,460 5.4 -5.1°
Maximum altitude 17:18:20 62° 304° (NW) 954 2.8 -6.0°
Drops below altitude 10° 17:24:00 10° 25° (NNE) 2,487 4.4 -6.9°
Sets 17:26:31 0° 29° (NNE) 3,428 5.1 -7.3°
